Regional Weather Roundup
Issued by NWS Albany, NY

Home | Current Version | Previous Version | Text Only | Print | Product List | Glossary On
Versions: 1 2 3 4 5 6 7 8 9 10 11 12 13 14 15 16 17 18 19 20 21 22 23 24 25 26 27 28 29 30 31 32 33 34 35 36 37 38 39 40 41 42 43 44 45 46 47 48 49 50
000
ASUS41 KALY 241010
RWRALY

NEW YORK STATE HOURLY WEATHER ROUNDUP
NATIONAL WEATHER SERVICE ALBANY NY
600 AM EDT TUE APR 24 2018

NOTE: "FAIR" INDICATES FEW OR NO CLOUDS BELOW 12,000 FEET WITH NO
SIGNIFICANT WEATHER AND/OR NO OBSTRUCTIONS TO VISIBILITY.

NYZ032-033-038>043-046>054-057>066-NYZ062>081-082-084-241100-
EAST


CITY           SKY/WX    TMP DP  RH WIND       PRES   REMARKS
ALBANY         FAIR      45  26  47 S6        30.36R
GLENS FALLS    FAIR      31  27  85 CALM      30.35R
POUGHKEEPSIE   FAIR      34  30  85 CALM      30.39R
NEWBURGH       CLEAR     37  34  87 CALM      30.39R
MONTGOMERY     FAIR      32  29  88 CALM      30.37S
WHITE PLAINS   FAIR      37  35  92 CALM      30.39S
ISLIP          FAIR      36  36 100 NE3       30.41S
NEW YORK CITY  FAIR      47  42  83 VRB5      30.40S
CENTRAL PARK   FAIR      47  42  83 CALM      30.43R
$$

NYZ005>009-017-018-044>046-055-056-241100-
CENTRAL


CITY           SKY/WX    TMP DP  RH WIND       PRES   REMARKS
FULTON         FAIR      52  33  48 SE6       30.26R
SYRACUSE       MOCLDY    46  32  58 E6        30.27R
ROME           FAIR      46  30  53 E8        30.32R
ELMIRA         FAIR      47  36  65 CALM      30.29R
BINGHAMTON     FAIR      44  27  51 S7        30.30S
MONTICELLO     FAIR      33  29  85 NE3       30.37S
$$

NYZ026>034-041>043-087-241100-
NORTH


CITY           SKY/WX    TMP DP  RH WIND       PRES   REMARKS
WATERTOWN      FAIR      53  33  46 S8        30.24S
FORT DRUM      NOT AVBL
OGDENSBURG     FAIR      52  32  45 S9        30.22S
MASSENA        FAIR      36  32  85 CALM      30.22S
SARANAC LAKE   FAIR      28  22  78 CALM      30.26S
PLATTSBURGH    FAIR      32  26  78 CALM      30.27R
$$

NYZ001>004-010>016-019>021-085-241100-
WEST


CITY           SKY/WX    TMP DP  RH WIND       PRES   REMARKS
NIAGARA FALLS  FAIR      52  38  58 S6        30.19S
BUFFALO        CLOUDY    55  41  59 SW8       30.21R
DUNKIRK        FAIR      56  40  55 S14G23    30.19R
JAMESTOWN      LGT RAIN  51  39  63 S9        30.23R
WELLSVILLE     FAIR      49  38  65 S9        30.26R
ROCHESTER      MOCLDY    55  40  56 S8        30.22R
PENN YAN       FAIR      48  34  58 S5        30.26R
$$

             KEY
       WCI = WIND CHILL INDEX
       VSB = VISIBILITY
       HX  = HEAT INDEX
$$



USA.gov is the U.S. government's official web portal to all federal, state and local government web resources and services.